Regional Weather Roundup
Issued by NWS

Home | Current Version | Previous Version | Graphics & Text | Print | Product List | Glossary On
Versions: 1 2 3 4 5 6 7 8 9 10 11 12 13 14 15 16 17 18 19 20 21 22 23 24 25 26 27 28 29 30 31 32 33 34 35 36 37 38 39 40 41 42 43 44 45 46 47 48 49 50
000
ASUS43 KLOT 311010
RWRIL

ILLINOIS REGIONAL WEATHER ROUNDUP
NATIONAL WEATHER SERVICE CHICAGO/ROMEOVILLE IL
500 AM CDT THU JUL 31 2014

NOTE: "FAIR" INDICATES FEW OR NO CLOUDS BELOW 12,000 FEET WITH NO
SIGNIFICANT WEATHER AND/OR OBSTRUCTIONS TO VISIBILITY.

* THESE STATIONS ARE NOT UNDER NWS QUALITY CONTROL. THEY ALSO MAY NOT
  REPORT WEATHER SUCH AS PRECIPITATION OR FOG.

ILZ001-002-007-009-015-016-024-311100-
NORTHWEST ILLINOIS

CITY           SKY/WX    TMP DP  RH WIND       PRES   REMARKS
MOLINE         CLEAR     60  57  89 CALM      30.05S
STERLING*      CLEAR     57  54  88 CALM      30.05S
SAVANNA*       CLEAR     59  57  92 CALM      30.04S FOG
$$

ILZ003-004-008-010-011-017-018-311100-
NORTH CENTRAL ILLINOIS

CITY           SKY/WX    TMP DP  RH WIND       PRES   REMARKS
ROCKFORD       PTCLDY    57  53  86 S6        30.05F
FREEPORT*      CLEAR     60  57  91 SW7       30.06R
ROCHELLE*      CLEAR     52  51  94 CALM      30.05S
DE KALB*       PTCLDY    58  53  85 W6        30.05R
PERU*          CLEAR     59  56  91 W6        30.05S
$$

ILZ005-006-012>014-019>023-311100-
NORTHEAST ILLINOIS

CITY           SKY/WX    TMP DP  RH WIND       PRES   REMARKS
CHICAGO-OHARE  CLEAR     62  56  80 W5        30.02R
CHICAGO-MIDWAY CLEAR     64  58  80 S6        30.02S
AURORA         CLEAR     54  51  90 CALM      30.04R FOG
LANSING*       CLEAR     55  54  95 SW3       30.04R FOG
JOLIET*        FOG       55  53  96 CALM      30.04S VSB 1/4
WAUKEGAN       PTCLDY    60  56  86 VRB3      30.01R
DUPAGE AIRPORT CLEAR     59  57  93 S3        30.03R FOG
KANKAKEE*      CLEAR     54  54  99 CALM      30.05S FOG
WHEELING       PTCLDY    62  57  83 S3        30.03S
MORRIS*        CLEAR     55  55 100 SW3       30.04R
ROMEOVILLE*      N/A     55  55 100 CALM      30.04S FOG
NORTHERLY ISL    N/A     64  57  78 SW5         N/A
$$

LMZ740>746-311100-
SOUTHERN LAKE MICHIGAN

STATION/POSITION SKY/WX   TEMP    WIND        PRES    VSBY  WAVE
                          AIR SEA DIR/SP/G                  HT/PER
                          (F)     (DEG/KT/KT) (MB)    (MI)  (FT/S)
SOUTHERN BUOY              62 60  230/ 14/ 14 1015.5S         1/ 3
WAUKEGAN HARBOR            63     250/  8/ 11   N/A
HARRISON CRIB              66     210/ 15/ 17   N/A
BURNHAM HARBOR             65     210/  5/  7   N/A
CALUMET HARBOR             63     220/  4/  6 1015.5S
MICHIGAN CITY              63     160/  7/ 10   N/A
MICHIGAN CITY 6N           65 69  210/  8/ 10   N/A           1/ 2
ST. JOSEPH                 66 69  200/ 12/ 14   N/A           1/ 2
$$

ILZ025>027-034>036-040-047-049-050-058-095>099-311100-
WEST-CENTRAL ILLINOIS

CITY           SKY/WX    TMP DP  RH WIND       PRES   REMARKS
QUINCY         CLEAR     60  58  92 CALM      30.08S
GALESBURG*     CLEAR     56  56  99 CALM      30.07S
MACOMB*          N/A     56  55  97 CALM      30.09S
JACKSONVILLE*  CLEAR     60  58  96 SW3       30.09R
PITTSFIELD*    CLEAR     58  56  90 CALM      30.09S
$$

ILZ028>032-037-038-041>044-048-051>054-059>061-311100-
CENTRAL ILLINOIS

CITY           SKY/WX    TMP DP  RH WIND       PRES   REMARKS
PONTIAC        CLEAR     54  54 100 CALM      30.06R
DECATUR        CLEAR     62  58  86 NW3       30.07S
PEORIA         CLEAR     61  57  87 SW3       30.07R
LACON*         CLEAR     57  55  93 CALM      30.05S
LINCOLN*       CLEAR     58  56  93 CALM      30.05S
SPRINGFIELD    CLEAR     58  56  93 CALM      30.07S
TAYLORVILLE    CLEAR     55  54  94 CALM      30.07S FOG
$$

ILZ033-039-045-046-055>057-062-063-311100-
EAST-CENTRAL ILLINOIS

CITY           SKY/WX    TMP DP  RH WIND       PRES   REMARKS
CHAMPAIGN      CLEAR     59  57  93 W3        30.07S
DANVILLE*      FOG       56  56 100 CALM      30.04R VSB 1/4
RANTOUL*       CLEAR     60  56  88 W5        30.07S
MATTOON        CLEAR     61  58  90 S5        30.06S
PARIS*         CLEAR     55  55  97 SW3       30.07S
$$

ILZ079-100>102-311100-
SOUTHWEST ILLINOIS

CITY           SKY/WX    TMP DP  RH WIND       PRES   REMARKS
ALTON          CLEAR     58  58 100 CALM      30.08R
BELLEVILLE     CLEAR     59  59  99 N1        30.07R
CAHOKIA*       CLEAR     59  58  96 CALM      30.07R
SPARTA*        CLEAR     55  55 100 CALM      30.08S
$$

ILZ064>066-069>071-074>076-080>082-084>086-088>090-092>094-311100-
SOUTH-CENTRAL ILLINOIS

CITY           SKY/WX    TMP DP  RH WIND       PRES   REMARKS
CARBONDALE     FOG       57  55  93 CALM      30.08R VSB 1/2
CAIRO*           N/A     61  58  92 CALM      30.07S FOG
EFFINGHAM*     FOG       59  56  90 CALM      30.08S VSB 1/2
MARION         FOG       61  61 100 CALM      30.08S VSB 1/2
MT. VERNON     CLEAR     57  52  82 CALM      30.08S
CENTRALIA*     FOG       55  54  95 CALM      30.08S VSB 3/4
SALEM*         FOG      N/A N/A N/A CALM      30.08S VSB 3/4
METROPOLIS*    PTCLDY    57  56  96 CALM      30.07S FOG
$$

ILZ067-068-072-073-078-083-087-091-311100-
SOUTHEAST ILLINOIS

CITY           SKY/WX    TMP DP  RH WIND       PRES   REMARKS
LAWRENCEVILLE  CLEAR     59  58  96 S5        30.08R FOG
FLORA*         CLEAR     55  55  98 CALM      30.08S FOG
FAIRFIELD*     CLEAR     57  57 100 CALM      30.08S FOG
HARRISBURG*    FOG       57  57 100 CALM      30.09S VSB 1/4
ROBINSON*      CLEAR     58  56  96 CALM      30.08S
$$

ABBREVIATIONS USED IN REMARKS
   TC - TEMPERATURE IN CELSIUS
  WCI - WIND CHILL INDEX
   HX - HEAT INDEX
  VSB - VISIBILITY
$$



USA.gov is the U.S. government's official web portal to all federal, state and local government web resources and services.